When you browse on this site, cookies collect data to enhance your experience and personalize the content and advertising you see.
Visit our Privacy Policy to learn more. By continuing to use the site, you agree to this use of cookies and data.

Meteo pe oră la Dziekanstwo

Astăzi, 25 Septembrie, Vineri

Timp Temperatura Precipitaţii Vânt Presiune Umiditate
00:00 +17°C° 0 mm 3 m/s 740 mmHg 78%
01:00 +17°C° 0 mm 3 m/s 739 mmHg 78%
02:00 +17°C° 0 mm 4 m/s 738 mmHg 78%
03:00 +17°C° 0 mm 4 m/s 737 mmHg 78%
04:00 +17°C° 0 mm 4 m/s 737 mmHg 77%
05:00 +16°C° 0 mm 5 m/s 736 mmHg 75%
06:00 +17°C° 0 mm 5 m/s 735 mmHg 72%
07:00 +17°C° 0 mm 6 m/s 735 mmHg 69%
08:00 +20°C° 0 mm 7 m/s 735 mmHg 66%
09:00 +21°C° 0 mm 7 m/s 734 mmHg 62%
10:00 +22°C° 0 mm 8 m/s 734 mmHg 59%
11:00 +21°C° 0.5 mm 8 m/s 734 mmHg 65%
12:00 +20°C° 0.5 mm 7 m/s 734 mmHg 72%
13:00 +19°C° 0.5 mm 6 m/s 733 mmHg 79%
14:00 +17°C° 0.5 mm 5 m/s 733 mmHg 80%
15:00 +18°C° 0.5 mm 3 m/s 733 mmHg 80%
16:00 +17°C° 0.5 mm 2 m/s 733 mmHg 81%
17:00 +17°C° 0 mm 2 m/s 733 mmHg 83%
18:00 +16°C° 0 mm 1 m/s 733 mmHg 85%
19:00 +16°C° 0 mm 1 m/s 733 mmHg 87%
20:00 +15°C° 0.3 mm 1 m/s 733 mmHg 88%
21:00 +15°C° 0.3 mm 2 m/s 733 mmHg 90%
22:00 +15°C° 0.3 mm 2 m/s 732 mmHg 91%
23:00 +14°C° 0.6 mm 3 m/s 732 mmHg 92%

Mâine, 26 Septembrie, Sâmbătă

Timp Temperatura Precipitaţii Vânt Presiune Umiditate
00:00 +13°C° 0.6 mm 3 m/s 731 mmHg 92%
01:00 +13°C° 0.6 mm 4 m/s 730 mmHg 93%
02:00 +13°C° 1.5 mm 4 m/s 729 mmHg 93%
03:00 +14°C° 1.5 mm 4 m/s 728 mmHg 94%
04:00 +14°C° 1.5 mm 5 m/s 727 mmHg 95%
05:00 +14°C° 0.7 mm 5 m/s 727 mmHg 94%
06:00 +15°C° 0.7 mm 5 m/s 727 mmHg 93%
07:00 +15°C° 0.7 mm 4 m/s 727 mmHg 92%
08:00 +15°C° 0.3 mm 5 m/s 727 mmHg 86%
09:00 +14°C° 0.3 mm 6 m/s 728 mmHg 81%
10:00 +14°C° 0.3 mm 7 m/s 729 mmHg 75%
11:00 +14°C° 0 mm 7 m/s 729 mmHg 72%
12:00 +14°C° 0 mm 6 m/s 730 mmHg 69%
13:00 +14°C° 0 mm 6 m/s 731 mmHg 66%
14:00 +14°C° 0 mm 6 m/s 731 mmHg 65%
15:00 +13°C° 0 mm 5 m/s 732 mmHg 64%
16:00 +13°C° 0 mm 5 m/s 733 mmHg 63%
17:00 +12°C° 0 mm 4 m/s 733 mmHg 64%
18:00 +11°C° 0 mm 4 m/s 734 mmHg 65%
19:00 +10°C° 0 mm 4 m/s 734 mmHg 66%
20:00 +10°C° 0 mm 3 m/s 735 mmHg 70%
21:00 +9°C° 0 mm 2 m/s 735 mmHg 74%
22:00 +9°C° 0 mm 1 m/s 736 mmHg 79%
23:00 +8°C° 0 mm 2 m/s 736 mmHg 78%

Poimâine, 27 Septembrie, Duminică

Timp Temperatura Precipitaţii Vânt Presiune Umiditate
00:00 +8°C° 0 mm 2 m/s 736 mmHg 77%
01:00 +8°C° 0 mm 2 m/s 736 mmHg 77%
02:00 +8°C° 0 mm 2 m/s 736 mmHg 77%
03:00 +8°C° 0 mm 2 m/s 736 mmHg 77%
04:00 +9°C° 0 mm 1 m/s 736 mmHg 78%
05:00 +9°C° 0 mm 1 m/s 736 mmHg 77%
06:00 +8°C° 0 mm 2 m/s 736 mmHg 75%
07:00 +8°C° 0 mm 2 m/s 737 mmHg 74%
08:00 +10°C° 0 mm 2 m/s 737 mmHg 70%
09:00 +12°C° 0 mm 2 m/s 737 mmHg 66%
10:00 +12°C° 0 mm 3 m/s 737 mmHg 62%
11:00 +13°C° 0 mm 3 m/s 737 mmHg 58%
12:00 +13°C° 0 mm 3 m/s 737 mmHg 55%
13:00 +14°C° 0 mm 3 m/s 737 mmHg 52%
14:00 +14°C° 0 mm 3 m/s 737 mmHg 54%
15:00 +14°C° 0 mm 3 m/s 738 mmHg 55%
16:00 +14°C° 0 mm 3 m/s 738 mmHg 57%
17:00 +13°C° 0 mm 3 m/s 739 mmHg 60%
18:00 +13°C° 0 mm 2 m/s 739 mmHg 63%
19:00 +12°C° 0 mm 2 m/s 740 mmHg 66%
20:00 +12°C° 0 mm 2 m/s 740 mmHg 68%
21:00 +10°C° 0 mm 2 m/s 741 mmHg 70%
22:00 +9°C° 0 mm 2 m/s 741 mmHg 72%
23:00 +9°C° 0 mm 3 m/s 741 mmHg 72%

28 Septembrie, Luni

Timp Temperatura Precipitaţii Vânt Presiune Umiditate
00:00 +9°C° 0 mm 3 m/s 742 mmHg 73%
01:00 +9°C° 0 mm 3 m/s 742 mmHg 73%
02:00 +9°C° 0 mm 3 m/s 742 mmHg 74%
03:00 +7°C° 0 mm 4 m/s 742 mmHg 74%
04:00 +7°C° 0 mm 4 m/s 742 mmHg 74%
05:00 +8°C° 0 mm 4 m/s 742 mmHg 73%
06:00 +8°C° 0 mm 4 m/s 742 mmHg 71%
07:00 +10°C° 0 mm 4 m/s 743 mmHg 70%
08:00 +10°C° 0 mm 5 m/s 743 mmHg 64%
09:00 +13°C° 0 mm 5 m/s 743 mmHg 59%
10:00 +15°C° 0 mm 6 m/s 743 mmHg 53%
11:00 +15°C° 0 mm 6 m/s 743 mmHg 52%
12:00 +16°C° 0 mm 5 m/s 742 mmHg 51%
13:00 +16°C° 0 mm 5 m/s 742 mmHg 51%
14:00 +16°C° 0 mm 5 m/s 742 mmHg 53%
15:00 +16°C° 0 mm 5 m/s 742 mmHg 56%
16:00 +15°C° 0 mm 4 m/s 742 mmHg 58%
17:00 +14°C° 0.1 mm 4 m/s 742 mmHg 63%
18:00 +13°C° 0.1 mm 4 m/s 742 mmHg 68%
19:00 +12°C° 0.1 mm 4 m/s 742 mmHg 73%
20:00 +12°C° 0.1 mm 4 m/s 742 mmHg 76%
21:00 +12°C° 0.1 mm 4 m/s 742 mmHg 79%
22:00 +11°C° 0.1 mm 4 m/s 742 mmHg 82%
23:00 +11°C° 0.8 mm 4 m/s 741 mmHg 85%

29 Septembrie, Marţi

Timp Temperatura Precipitaţii Vânt Presiune Umiditate
00:00 +11°C° 0.8 mm 3 m/s 741 mmHg 87%
01:00 +12°C° 0.8 mm 2 m/s 741 mmHg 90%
02:00 +12°C° 0.3 mm 2 m/s 741 mmHg 91%
03:00 +12°C° 0.3 mm 2 m/s 741 mmHg 92%
04:00 +12°C° 0.3 mm 1 m/s 741 mmHg 93%
05:00 +12°C° 0.1 mm 2 m/s 741 mmHg 93%
06:00 +11°C° 0.1 mm 3 m/s 742 mmHg 93%
07:00 +11°C° 0.1 mm 3 m/s 742 mmHg 93%
08:00 +12°C° 0.1 mm 4 m/s 743 mmHg 89%
09:00 +12°C° 0.1 mm 4 m/s 743 mmHg 85%
10:00 +13°C° 0.1 mm 5 m/s 744 mmHg 81%
11:00 +14°C° 0.1 mm 5 m/s 744 mmHg 76%
12:00 +15°C° 0.1 mm 5 m/s 745 mmHg 70%
13:00 +16°C° 0.1 mm 5 m/s 746 mmHg 64%
14:00 +17°C° 0.1 mm 4 m/s 746 mmHg 64%
15:00 +17°C° 0.1 mm 4 m/s 746 mmHg 64%
16:00 +17°C° 0.1 mm 4 m/s 746 mmHg 64%
17:00 +14°C° 0 mm 3 m/s 747 mmHg 70%
18:00 +13°C° 0 mm 3 m/s 747 mmHg 75%
19:00 +13°C° 0 mm 2 m/s 748 mmHg 81%
20:00 +12°C° 0 mm 2 m/s 748 mmHg 84%
21:00 +12°C° 0 mm 2 m/s 748 mmHg 87%
22:00 +10°C° 0 mm 2 m/s 748 mmHg 90%
23:00 +10°C° 0 mm 2 m/s 748 mmHg 91%

30 Septembrie, Miercuri

Timp Temperatura Precipitaţii Vânt Presiune Umiditate
00:00 +9°C° 0 mm 2 m/s 748 mmHg 92%
01:00 +9°C° 0 mm 2 m/s 748 mmHg 93%
02:00 +10°C° 0 mm 1 m/s 748 mmHg 93%
03:00 +10°C° 0 mm 1 m/s 748 mmHg 93%
04:00 +9°C° 0 mm 1 m/s 748 mmHg 93%
05:00 +10°C° 0 mm 1 m/s 748 mmHg 91%
06:00 +10°C° 0 mm 1 m/s 748 mmHg 89%
07:00 +11°C° 0 mm 1 m/s 748 mmHg 88%
08:00 +12°C° 0 mm 1 m/s 748 mmHg 80%
09:00 +14°C° 0 mm 1 m/s 747 mmHg 73%
10:00 +16°C° 0 mm 1 m/s 747 mmHg 65%
11:00 +18°C° 0 mm 1 m/s 747 mmHg 62%
12:00 +19°C° 0 mm 1 m/s 747 mmHg 58%
13:00 +18°C° 0 mm 0 m/s 746 mmHg 54%
14:00 +18°C° 0 mm 0 m/s 746 mmHg 54%
15:00 +17°C° 0 mm 0 m/s 745 mmHg 54%
16:00 +17°C° 0 mm 0 m/s 745 mmHg 54%
17:00 +16°C° 0 mm 0 m/s 745 mmHg 59%
18:00 +15°C° 0 mm 1 m/s 745 mmHg 64%
19:00 +13°C° 0 mm 1 m/s 745 mmHg 69%
20:00 +13°C° 0 mm 1 m/s 745 mmHg 71%
21:00 +13°C° 0 mm 1 m/s 745 mmHg 73%
22:00 +12°C° 0 mm 1 m/s 745 mmHg 74%
23:00 +12°C° 0 mm 1 m/s 745 mmHg 76%
Arată mai mult